SCP
-0 -0 0 0 0 0 0 0 0 0 0 0 0 0 0 0 0 0 0 -0 -0 0 0 0 0 0 0 0 0 0 0 0 0 0 0 0 0 0 0 0 0 0 0 0 2
-0 -0 0 0 0 0 0 0 0 0 0 0 0 0 0 0 0 0 0 0 0 0 0 0 0 0 0 0 0 0 0 0 0 0 0 0 -0 0 0 0 0 0 0 0 3
0 0 0 0 0 0 0 0 0 0 0 0 0 0 0 -0 -0 -0 0 0 0 0 0 0 0 0 0 0 0 0 0 0 0 0 0 0 -0 -0 0 0 0 0 0 0 3
0 0 0 0 0 0 0 0 0 -0 -0 -0 0 0 0 -0 0 0 0 0 0 0 0 0 0 0 0 0 0 0 0 0 0 0 0 0 -0 0 0 0 0 0 0 2 3
0 0 0 0 0 0 0 0 -0 -0 -0 0 0 0 0 0 0 0 0 0 0 0 0 0 0 0 0 0 0 0 0 0 0 0 0 0 0 0 0 0 0 -0 0 2 3
0 0 0 0 0 0 0 0 0 -0 0 -0 0 0 0 -0 -0 0 0 0 0 0 0 0 0 0 0 0 0 0 0 0 0 0 0 0 0 0 -0 -0 0 -0 0 0 1
0 0 0 0 0 -0 0 0 0 0 0 0 0 0 0 -0 0 0 0 0 0 0 0 0 0 0 0 0 0 0 0 0 0 0 0 0 0 -0 -0 0 0 0 0 0 1
0 0 0 0 0 -0 -0 -0 0 -0 0 0 0 0 0 0 0 0 0 0 0 0 0 0 0 0 0 0 0 0 0 0 0 0 0 0 -0 -0 -0 -0 -0 0 0 0 0
0 0 0 0 0 -0 -0 -0 0 0 0 0 0 0 0 0 0 0 0 0 0 0 0 0 0 0 0 0 0 0 0 0 0 0 0 0 0 -0 0 0 0 0 0 0 0
0 0 0 0 0 0 -0 0 0 0 0 0 0 0 0 0 0 0 0 0 0 0 0 0 0 0 0 0 0 0 0 0 0 0 0 0 0 0 0 0 0 0 0 0 0
0 0 0 0 0 0 0 0 0 0 0 0 0 0 0 0 0 0 0 0 0 0 0 0 0 0 0 0 0 0 0 0 0 0 0 0 0 0 -0 0 0 0 0 0 0
0 0 0 0 0 0 0 0 0 0 0 0 0 0 0 0 0 0 0 0 0 0 0 0 0 0 0 0 0 0 0 0 0 0 0 0 0 0 0 0 0 0 0 0 0
0 0 0 0 0 0 0 0 0 0 0 0 0 0 0 0 0 0 0 0 0 0 0 0 0 0 0 0 0 0 0 0 0 0 0 0 0 0 0 0 0 0 0 0 0
0 0 0 -0 0 0 0 0 0 0 0 0 0 0 0 0 0 0 0 0 0 0 0 0 0 0 0 0 0 0 0 0 0 0 0 0 0 0 0 0 0 0 0 0 0
0 0 0 0 0 0 0 0 0 0 0 0 0 0 0 0 0 0 0 0 0 0 0 0 0 0 0 0 0 0 0 0 0 0 0 0 0 0 0 0 0 0 0 0 0
0 0 0 0 0 0 0 0 0 0 0 0 0 0 0 0 0 0 0 0 0 0 0 0 -0 0 -0 0 0 0 0 0 0 0 0 0 0 0 0 0 0 0 0 0 0
0 0 0 0 0 0 0 0 0 0 0 0 0 0 0 0 0 0 0 0 0 -0 0 0 -0 -0 -0 0 0 0 0 0 0 0 0 0 0 0 0 0 0 0 0 0 0
0 0 0 0 0 0 0 0 0 0 0 0 0 0 0 0 0 0 0 0 0 0 0 0 0 0 -0 0 0 0 0 0 0 0 0 0 0 0 0 0 0 0 0 0 0
0 0 0 0 0 0 0 0 0 0 0 -0 0 0 0 0 0 0 0 0 0 0 -0 0 0 -0 0 -0 0 0 0 0 0 0 0 0 0 0 0 0 0 0 0 0 0
0 0 0 0 0 0 0 0 0 0 0 0 0 0 0 0 0 0 0 0 0 0 0 -0 -0 -0 0 -0 -0 -0 0 0 0 0 0 0 0 0 0 0 0 0 0 0 0
0 0 0 0 0 0 0 0 0 0 0 0 0 0 0 0 0 0 0 0 0 0 -0 0 0 -0 -0 0 0 -0 0 0 0 0 0 0 0 0 0 0 0 0 0 0 0
0 0 0 0 0 0 0 0 0 0 0 0 0 0 0 0 0 0 0 0 0 0 -0 0 0 0 -0 -0 0 -0 0 0 0 0 0 0 0 0 0 0 0 0 0 0 1
0 0 0 0 0 0 0 0 0 0 0 0 0 0 0 0 0 0 0 0 0 0 0 0 0 -0 0 0 -0 -0 -0 0 0 0 0 0 0 0 1 1 1 0 1 2 3
0 0 0 0 0 0 0 0 0 0 0 0 0 0 0 -0 0 0 0 0 0 -0 -0 -0 0 0 0 -0 -0 -0 -0 0 0 0 0 0 1 1 1 1 1 1 2 3 3
0 0 0 0 0 0 0 0 0 0 0 0 0 0 -0 0 -0 0 0 -0 0 0 0 0 0 0 -0 0 -0 -0 0 0 0 0 0 0 0 0 1 1 1 1 2 2 0
0 0 0 0 0 0 0 0 0 -0 0 0 0 -0 -0 0 0 -0 -0 -0 0 0 0 0 0 0 0 -0 0 -0 -0 0 0 0 0 0 0 0 0 1 1 0 0 0 0
0 0 0 0 0 0 0 0 0 -0 0 0 -0 -0 -0 -0 -0 -0 -0 -0 0 0 0 0 0 0 0 -0 0 -0 -0 0 0 0 0 0 0 0 0 1 0 0 0 0 0
Wind_Speed_500mb
49 47 46 46 47 47 47 46 46 47 47 48 48 48 51 53 54 55 61 47 25 16 32 33 32 17 30 34 36 26 7 22 26 20 22 2 5 8 10 27 28 20 32 48 44
48 47 48 50 52 52 51 50 50 51 51 52 54 55 54 55 56 54 9 24 25 22 14 26 44 24 18 23 26 13 15 23 10 16 16 15 0 9 8 20 42 45 35 53 62
54 54 55 57 59 57 56 53 51 46 45 45 45 47 49 51 51 5 6 7 3 23 23 22 32 25 26 18 28 15 26 28 13 31 34 20 12 23 7 23 38 31 46 34 75
54 55 58 61 61 57 51 45 39 37 38 42 44 46 43 34 13 20 24 21 40 39 27 22 30 13 9 19 27 11 23 43 3 54 39 9 22 15 29 45 50 43 50 42 81
59 61 64 64 61 51 40 34 33 31 39 47 45 42 29 15 32 21 23 20 30 32 13 24 39 29 9 8 19 14 11 14 44 52 52 46 26 25 47 49 54 57 42 33 75
63 64 66 65 56 42 29 25 26 34 46 43 34 37 20 13 26 27 27 30 35 35 18 21 18 37 11 12 10 6 19 36 48 39 27 33 41 48 23 44 49 38 40 34 72
66 67 67 63 46 32 19 23 29 38 44 32 45 32 22 19 26 31 37 40 44 39 37 36 35 26 13 13 26 31 16 22 23 9 16 20 37 65 52 59 63 58 49 31 76
67 67 66 53 39 24 19 29 36 39 36 27 41 19 20 17 40 42 45 48 47 45 44 30 36 44 23 25 16 11 9 23 19 20 15 34 60 25 37 32 47 47 50 25 76
71 71 65 41 31 17 25 37 36 28 21 29 24 12 23 38 47 51 48 50 47 39 41 28 25 29 15 7 7 10 10 16 13 14 14 34 37 28 39 29 38 42 45 20 45
74 73 61 33 22 20 28 38 39 15 17 26 12 13 16 42 51 49 47 36 31 35 22 23 20 11 11 17 30 24 8 7 7 7 28 30 33 17 21 44 47 46 44 33 26
75 76 53 28 19 23 32 40 37 6 49 25 48 38 57 41 55 49 43 33 9 1 11 12 8 19 37 25 27 24 20 15 9 16 11 36 38 31 14 21 27 50 53 32 23
78 74 46 34 17 18 28 28 25 19 22 34 25 24 28 38 25 41 29 17 5 12 6 5 22 19 11 13 23 30 22 26 24 23 13 19 28 19 20 19 37 47 56 56 32
81 70 39 32 10 21 24 33 33 27 9 27 17 18 17 51 19 28 13 11 10 17 18 28 10 25 19 22 26 26 34 29 29 26 30 13 16 16 16 23 37 62 69 52 46
81 67 33 29 9 27 28 35 40 22 6 12 8 9 34 55 8 46 17 9 5 11 10 13 15 24 23 26 28 26 18 27 26 17 12 10 10 15 20 28 26 35 51 69 59
82 60 26 26 26 26 37 49 40 4 6 15 2 21 66 21 30 13 21 4 12 24 7 11 10 18 34 42 22 27 17 16 21 14 7 22 3 13 12 23 27 35 53 64 66
85 49 15 21 31 35 41 51 6 9 8 14 18 36 34 45 22 17 23 7 9 12 16 23 18 10 28 30 36 12 7 8 18 10 12 24 14 9 10 29 37 26 34 51 63
85 37 14 18 38 42 45 35 8 7 10 13 29 26 38 10 22 11 21 5 7 13 7 8 24 12 12 14 9 10 22 8 12 12 9 18 14 24 14 14 20 27 25 47 62
78 33 14 29 40 43 34 10 8 5 16 20 24 41 10 17 17 17 12 5 6 5 8 8 4 3 21 15 12 16 18 9 12 13 15 18 16 17 46 33 23 17 47 44 54
73 12 31 34 39 30 3 8 7 9 24 24 34 9 7 16 6 14 9 3 5 10 5 7 8 10 16 10 19 11 19 18 4 4 6 8 14 11 19 16 13 19 33 65 67
72 10 28 38 34 15 11 6 4 16 27 25 8 9 21 19 17 20 10 8 4 5 3 6 13 10 10 19 19 10 17 14 4 11 10 11 37 16 7 18 15 10 20 52 70
54 12 24 42 24 16 5 9 12 42 37 12 11 13 10 14 26 14 10 7 6 3 13 12 7 6 1 7 16 10 11 6 9 6 9 20 12 2 5 5 12 9 23 52 64
37 7 28 35 15 7 4 13 22 16 29 9 10 5 8 26 16 12 12 11 11 7 12 6 6 9 14 14 13 21 12 10 9 10 7 4 9 10 12 13 5 13 29 48 67
37 13 20 34 7 7 12 12 11 20 25 7 9 9 6 20 15 17 18 9 11 7 6 6 6 8 11 9 2 8 12 10 8 6 7 4 6 11 7 8 9 14 46 63 75
21 9 15 18 8 4 8 8 19 36 26 21 15 16 24 29 19 20 35 16 30 58 55 28 11 12 8 4 1 7 9 13 10 6 5 2 8 14 8 12 18 30 50 68 81
21 5 8 9 8 13 8 8 18 25 11 20 8 15 34 16 36 13 29 43 23 18 1 5 9 16 27 29 22 18 17 12 24 14 8 9 4 10 13 10 21 42 53 56 68
14 13 12 22 29 11 11 8 15 32 10 15 11 43 38 20 29 48 45 46 10 5 2 3 5 6 13 34 26 22 21 17 12 21 13 12 4 6 11 9 35 42 54 54 65
18 15 10 12 10 7 6 12 24 35 23 33 32 38 37 24 57 81 75 66 31 10 7 6 4 4 5 26 21 13 28 20 12 22 19 9 9 9 9 13 35 51 56 58 66
Wind_Direction_500mb
2 359 354 352 350 347 342 337 332 328 324 321 318 316 312 310 309 305 298 292 289 237 247 239 227 231 202 211 204 195 201 230 225 202 235 100 127 172 247 237 270 265 251 261 243
2 358 354 352 349 347 342 337 334 332 333 330 327 325 325 326 324 313 314 139 111 25 306 242 222 222 197 211 202 182 216 226 202 196 248 247 178 321 299 304 295 298 291 310 225
0 357 354 351 347 345 340 338 338 346 347 343 338 333 331 338 331 11 166 239 356 347 297 263 236 229 214 204 202 207 233 228 236 235 250 264 261 265 251 273 256 276 312 286 201
359 354 354 349 347 346 343 343 350 356 355 344 335 327 326 336 316 320 302 257 273 303 293 263 216 226 210 210 211 253 230 238 196 243 262 250 271 247 238 250 274 278 309 217 194
359 355 352 349 348 349 350 355 358 354 342 338 333 324 324 299 290 333 330 326 280 275 261 252 205 202 209 221 231 242 244 259 239 247 264 275 268 259 258 263 263 279 293 230 195
358 354 351 347 347 350 355 6 353 338 335 339 339 326 312 283 334 337 344 346 346 333 263 230 226 222 237 231 231 255 224 254 265 261 247 258 273 263 267 268 265 273 277 250 203
356 352 348 344 345 350 7 2 352 332 325 331 336 322 299 281 346 338 336 326 322 320 306 247 236 248 254 313 271 262 278 275 245 222 232 244 267 248 257 266 274 278 282 262 206
353 350 347 344 343 354 1 346 342 324 318 312 331 310 265 323 332 340 330 325 321 315 314 279 228 245 249 275 315 298 188 246 249 192 221 178 255 257 245 238 251 264 271 253 200
351 349 346 345 343 5 358 347 349 319 308 308 320 286 280 335 326 329 329 316 310 304 307 262 233 224 219 208 334 245 240 227 290 204 191 195 252 250 244 228 244 250 258 241 193
350 347 346 347 339 347 354 351 359 316 337 323 298 305 291 317 335 321 325 325 299 283 284 230 210 191 188 212 221 224 220 267 202 297 199 235 246 271 284 211 223 249 248 240 186
350 344 345 352 323 339 353 6 13 328 317 271 282 261 290 313 320 315 319 323 280 294 201 219 173 208 211 218 238 263 273 287 322 252 245 229 251 245 230 223 225 231 233 227 199
351 345 343 350 322 353 4 13 359 323 309 318 301 286 307 323 286 335 329 301 233 254 226 290 228 224 220 214 243 254 256 268 288 288 265 270 251 240 211 217 221 229 236 230 201
350 346 341 353 17 358 359 359 352 332 279 293 304 299 312 335 277 314 315 293 269 272 245 231 218 216 211 214 229 242 249 242 253 287 291 292 280 236 239 216 218 230 232 225 209
350 345 338 346 349 346 356 341 329 331 29 276 323 295 328 336 255 321 278 297 277 280 260 234 217 224 235 234 210 229 244 241 234 232 243 165 284 223 222 236 220 233 226 228 225
349 343 339 335 350 351 342 337 329 151 355 305 335 327 332 338 301 319 323 227 244 275 266 224 230 213 210 246 229 224 210 254 261 259 335 272 307 267 193 223 226 221 218 223 227
349 342 332 353 350 341 336 337 45 49 272 323 350 319 334 326 320 300 317 317 299 296 246 248 261 187 211 221 213 147 167 259 232 261 241 235 188 264 205 208 224 225 208 207 216
350 345 316 337 345 333 324 333 31 89 350 300 318 329 320 295 325 317 323 342 335 343 322 266 227 204 186 194 173 126 157 198 183 216 227 200 205 243 241 226 215 216 194 201 211
352 350 343 354 335 319 322 40 34 343 298 306 313 313 274 6 314 312 307 351 292 237 285 328 290 268 181 178 181 174 180 168 178 173 212 194 211 238 235 252 263 259 203 211 217
352 63 26 360 337 330 10 55 214 295 323 322 316 304 285 327 302 319 314 263 269 38 333 326 273 173 293 233 166 182 191 189 134 236 117 187 256 303 235 254 224 219 205 202 210
347 330 20 2 341 330 67 272 230 296 344 324 293 304 307 322 311 340 287 194 258 152 159 282 284 241 255 230 231 175 157 176 213 176 182 182 220 216 191 206 241 252 202 203 205
352 353 338 345 332 40 92 263 297 322 342 309 291 285 285 318 313 301 270 262 237 44 356 249 242 285 141 222 173 173 180 163 130 242 191 176 231 259 183 302 263 286 215 197 191
352 351 347 360 49 30 355 299 303 309 330 302 304 282 284 321 286 285 245 198 270 27 308 244 238 269 232 274 355 235 174 160 137 213 239 185 255 289 262 243 252 263 210 177 171
340 307 346 12 72 331 315 303 293 346 321 311 277 260 290 316 302 256 265 272 236 334 272 194 223 298 294 62 283 196 197 176 126 106 232 102 290 331 104 85 71 135 139 133 135
346 352 342 35 83 53 316 275 334 331 304 343 274 290 321 309 280 281 280 294 305 299 279 228 204 212 244 333 175 276 207 171 134 125 239 91 344 0 48 97 94 117 128 133 130
11 22 12 315 339 332 285 264 325 341 300 300 279 298 318 303 302 264 297 300 301 276 211 148 231 208 244 261 268 272 264 216 189 156 185 186 82 337 14 96 114 123 119 117 121
22 359 336 296 296 307 340 313 316 323 280 289 273 312 310 287 280 296 304 299 283 23 39 343 254 236 260 238 233 233 249 261 223 161 115 119 80 307 4 337 103 109 116 113 115
10 330 293 278 305 334 269 337 308 314 294 254 298 310 304 285 305 289 279 273 257 250 199 213 242 250 284 142 167 228 218 201 175 145 136 153 174 70 10 128 113 111 109 111 111
Wind_Speed_850mb
49 47 46 46 47 47 47 46 46 47 47 48 48 48 51 53 54 55 61 47 25 16 32 33 32 17 30 34 36 26 7 22 26 20 22 2 5 8 10 27 28 20 32 48 44
48 47 48 50 52 52 51 50 50 51 51 52 54 55 54 55 56 54 9 24 25 22 14 26 44 24 18 23 26 13 15 23 10 16 16 15 0 9 8 20 42 45 35 53 62
54 54 55 57 59 57 56 53 51 46 45 45 45 47 49 51 51 5 6 7 3 23 23 22 32 25 26 18 28 15 26 28 13 31 34 20 12 23 7 23 38 31 46 34 75
54 55 58 61 61 57 51 45 39 37 38 42 44 46 43 34 13 20 24 21 40 39 27 22 30 13 9 19 27 11 23 43 3 54 39 9 22 15 29 45 50 43 50 42 81
59 61 64 64 61 51 40 34 33 31 39 47 45 42 29 15 32 21 23 20 30 32 13 24 39 29 9 8 19 14 11 14 44 52 52 46 26 25 47 49 54 57 42 33 75
63 64 66 65 56 42 29 25 26 34 46 43 34 37 20 13 26 27 27 30 35 35 18 21 18 37 11 12 10 6 19 36 48 39 27 33 41 48 23 44 49 38 40 34 72
66 67 67 63 46 32 19 23 29 38 44 32 45 32 22 19 26 31 37 40 44 39 37 36 35 26 13 13 26 31 16 22 23 9 16 20 37 65 52 59 63 58 49 31 76
67 67 66 53 39 24 19 29 36 39 36 27 41 19 20 17 40 42 45 48 47 45 44 30 36 44 23 25 16 11 9 23 19 20 15 34 60 25 37 32 47 47 50 25 76
71 71 65 41 31 17 25 37 36 28 21 29 24 12 23 38 47 51 48 50 47 39 41 28 25 29 15 7 7 10 10 16 13 14 14 34 37 28 39 29 38 42 45 20 45
74 73 61 33 22 20 28 38 39 15 17 26 12 13 16 42 51 49 47 36 31 35 22 23 20 11 11 17 30 24 8 7 7 7 28 30 33 17 21 44 47 46 44 33 26
75 76 53 28 19 23 32 40 37 6 49 25 48 38 57 41 55 49 43 33 9 1 11 12 8 19 37 25 27 24 20 15 9 16 11 36 38 31 14 21 27 50 53 32 23
78 74 46 34 17 18 28 28 25 19 22 34 25 24 28 38 25 41 29 17 5 12 6 5 22 19 11 13 23 30 22 26 24 23 13 19 28 19 20 19 37 47 56 56 32
81 70 39 32 10 21 24 33 33 27 9 27 17 18 17 51 19 28 13 11 10 17 18 28 10 25 19 22 26 26 34 29 29 26 30 13 16 16 16 23 37 62 69 52 46
81 67 33 29 9 27 28 35 40 22 6 12 8 9 34 55 8 46 17 9 5 11 10 13 15 24 23 26 28 26 18 27 26 17 12 10 10 15 20 28 26 35 51 69 59
82 60 26 26 26 26 37 49 40 4 6 15 2 21 66 21 30 13 21 4 12 24 7 11 10 18 34 42 22 27 17 16 21 14 7 22 3 13 12 23 27 35 53 64 66
85 49 15 21 31 35 41 51 6 9 8 14 18 36 34 45 22 17 23 7 9 12 16 23 18 10 28 30 36 12 7 8 18 10 12 24 14 9 10 29 37 26 34 51 63
85 37 14 18 38 42 45 35 8 7 10 13 29 26 38 10 22 11 21 5 7 13 7 8 24 12 12 14 9 10 22 8 12 12 9 18 14 24 14 14 20 27 25 47 62
78 33 14 29 40 43 34 10 8 5 16 20 24 41 10 17 17 17 12 5 6 5 8 8 4 3 21 15 12 16 18 9 12 13 15 18 16 17 46 33 23 17 47 44 54
73 12 31 34 39 30 3 8 7 9 24 24 34 9 7 16 6 14 9 3 5 10 5 7 8 10 16 10 19 11 19 18 4 4 6 8 14 11 19 16 13 19 33 65 67
72 10 28 38 34 15 11 6 4 16 27 25 8 9 21 19 17 20 10 8 4 5 3 6 13 10 10 19 19 10 17 14 4 11 10 11 37 16 7 18 15 10 20 52 70
54 12 24 42 24 16 5 9 12 42 37 12 11 13 10 14 26 14 10 7 6 3 13 12 7 6 1 7 16 10 11 6 9 6 9 20 12 2 5 5 12 9 23 52 64
37 7 28 35 15 7 4 13 22 16 29 9 10 5 8 26 16 12 12 11 11 7 12 6 6 9 14 14 13 21 12 10 9 10 7 4 9 10 12 13 5 13 29 48 67
37 13 20 34 7 7 12 12 11 20 25 7 9 9 6 20 15 17 18 9 11 7 6 6 6 8 11 9 2 8 12 10 8 6 7 4 6 11 7 8 9 14 46 63 75
21 9 15 18 8 4 8 8 19 36 26 21 15 16 24 29 19 20 35 16 30 58 55 28 11 12 8 4 1 7 9 13 10 6 5 2 8 14 8 12 18 30 50 68 81
21 5 8 9 8 13 8 8 18 25 11 20 8 15 34 16 36 13 29 43 23 18 1 5 9 16 27 29 22 18 17 12 24 14 8 9 4 10 13 10 21 42 53 56 68
14 13 12 22 29 11 11 8 15 32 10 15 11 43 38 20 29 48 45 46 10 5 2 3 5 6 13 34 26 22 21 17 12 21 13 12 4 6 11 9 35 42 54 54 65
18 15 10 12 10 7 6 12 24 35 23 33 32 38 37 24 57 81 75 66 31 10 7 6 4 4 5 26 21 13 28 20 12 22 19 9 9 9 9 13 35 51 56 58 66
Wind_Direction_850mb
2 359 354 352 350 347 342 337 332 328 324 321 318 316 312 310 309 305 298 292 289 237 247 239 227 231 202 211 204 195 201 230 225 202 235 100 127 172 247 237 270 265 251 261 243
2 358 354 352 349 347 342 337 334 332 333 330 327 325 325 326 324 313 314 139 111 25 306 242 222 222 197 211 202 182 216 226 202 196 248 247 178 321 299 304 295 298 291 310 225
0 357 354 351 347 345 340 338 338 346 347 343 338 333 331 338 331 11 166 239 356 347 297 263 236 229 214 204 202 207 233 228 236 235 250 264 261 265 251 273 256 276 312 286 201
359 354 354 349 347 346 343 343 350 356 355 344 335 327 326 336 316 320 302 257 273 303 293 263 216 226 210 210 211 253 230 238 196 243 262 250 271 247 238 250 274 278 309 217 194
359 355 352 349 348 349 350 355 358 354 342 338 333 324 324 299 290 333 330 326 280 275 261 252 205 202 209 221 231 242 244 259 239 247 264 275 268 259 258 263 263 279 293 230 195
358 354 351 347 347 350 355 6 353 338 335 339 339 326 312 283 334 337 344 346 346 333 263 230 226 222 237 231 231 255 224 254 265 261 247 258 273 263 267 268 265 273 277 250 203
356 352 348 344 345 350 7 2 352 332 325 331 336 322 299 281 346 338 336 326 322 320 306 247 236 248 254 313 271 262 278 275 245 222 232 244 267 248 257 266 274 278 282 262 206
353 350 347 344 343 354 1 346 342 324 318 312 331 310 265 323 332 340 330 325 321 315 314 279 228 245 249 275 315 298 188 246 249 192 221 178 255 257 245 238 251 264 271 253 200
351 349 346 345 343 5 358 347 349 319 308 308 320 286 280 335 326 329 329 316 310 304 307 262 233 224 219 208 334 245 240 227 290 204 191 195 252 250 244 228 244 250 258 241 193
350 347 346 347 339 347 354 351 359 316 337 323 298 305 291 317 335 321 325 325 299 283 284 230 210 191 188 212 221 224 220 267 202 297 199 235 246 271 284 211 223 249 248 240 186
350 344 345 352 323 339 353 6 13 328 317 271 282 261 290 313 320 315 319 323 280 294 201 219 173 208 211 218 238 263 273 287 322 252 245 229 251 245 230 223 225 231 233 227 199
351 345 343 350 322 353 4 13 359 323 309 318 301 286 307 323 286 335 329 301 233 254 226 290 228 224 220 214 243 254 256 268 288 288 265 270 251 240 211 217 221 229 236 230 201
350 346 341 353 17 358 359 359 352 332 279 293 304 299 312 335 277 314 315 293 269 272 245 231 218 216 211 214 229 242 249 242 253 287 291 292 280 236 239 216 218 230 232 225 209
350 345 338 346 349 346 356 341 329 331 29 276 323 295 328 336 255 321 278 297 277 280 260 234 217 224 235 234 210 229 244 241 234 232 243 165 284 223 222 236 220 233 226 228 225
349 343 339 335 350 351 342 337 329 151 355 305 335 327 332 338 301 319 323 227 244 275 266 224 230 213 210 246 229 224 210 254 261 259 335 272 307 267 193 223 226 221 218 223 227
349 342 332 353 350 341 336 337 45 49 272 323 350 319 334 326 320 300 317 317 299 296 246 248 261 187 211 221 213 147 167 259 232 261 241 235 188 264 205 208 224 225 208 207 216
350 345 316 337 345 333 324 333 31 89 350 300 318 329 320 295 325 317 323 342 335 343 322 266 227 204 186 194 173 126 157 198 183 216 227 200 205 243 241 226 215 216 194 201 211
352 350 343 354 335 319 322 40 34 343 298 306 313 313 274 6 314 312 307 351 292 237 285 328 290 268 181 178 181 174 180 168 178 173 212 194 211 238 235 252 263 259 203 211 217
352 63 26 360 337 330 10 55 214 295 323 322 316 304 285 327 302 319 314 263 269 38 333 326 273 173 293 233 166 182 191 189 134 236 117 187 256 303 235 254 224 219 205 202 210
347 330 20 2 341 330 67 272 230 296 344 324 293 304 307 322 311 340 287 194 258 152 159 282 284 241 255 230 231 175 157 176 213 176 182 182 220 216 191 206 241 252 202 203 205
352 353 338 345 332 40 92 263 297 322 342 309 291 285 285 318 313 301 270 262 237 44 356 249 242 285 141 222 173 173 180 163 130 242 191 176 231 259 183 302 263 286 215 197 191
352 351 347 360 49 30 355 299 303 309 330 302 304 282 284 321 286 285 245 198 270 27 308 244 238 269 232 274 355 235 174 160 137 213 239 185 255 289 262 243 252 263 210 177 171
340 307 346 12 72 331 315 303 293 346 321 311 277 260 290 316 302 256 265 272 236 334 272 194 223 298 294 62 283 196 197 176 126 106 232 102 290 331 104 85 71 135 139 133 135
346 352 342 35 83 53 316 275 334 331 304 343 274 290 321 309 280 281 280 294 305 299 279 228 204 212 244 333 175 276 207 171 134 125 239 91 344 0 48 97 94 117 128 133 130
11 22 12 315 339 332 285 264 325 341 300 300 279 298 318 303 302 264 297 300 301 276 211 148 231 208 244 261 268 272 264 216 189 156 185 186 82 337 14 96 114 123 119 117 121
22 359 336 296 296 307 340 313 316 323 280 289 273 312 310 287 280 296 304 299 283 23 39 343 254 236 260 238 233 233 249 261 223 161 115 119 80 307 4 337 103 109 116 113 115
10 330 293 278 305 334 269 337 308 314 294 254 298 310 304 285 305 289 279 273 257 250 199 213 242 250 284 142 167 228 218 201 175 145 136 153 174 70 10 128 113 111 109 111 111